Location: Anankanda
(14.7841°N, 3.0348°W)
Time: 05:29:16
(UTC+00:00)

Cosmos 1092 Rocket - Pass Details

Date: 17 January 2021
Orbit: 954 x 995 km, 83.0° (Epoch: 07 March)

Event Time Altitude Azimuth Distance (km) Brightness Sun altitude
Rises 18:57:16 0° 176° (S) 3,685 7.2 -13.1°
Reaches altitude 10° 18:59:49 10° 173° (S) 2,732 6.5 -13.7°
Maximum altitude 19:06:00 65° 92° (E) 1,068 4.0 -15.1°
Drops below altitude 10° 19:12:08 10° 12° (NNE) 2,708 6.0 -16.5°
Sets 19:14:38 0° 9° (N) 3,649 6.7 -17.1°
